DW8013 Weather Reports


Display with metric or nautical units.
time (UTC)temp
F
wind
direction
speed
MPH
gust
MPH
rain 1hr
in
rain 24hr
in
rain mn
in
humidity
%
barometer
mb
20260507123025 59 5 0.0 0.0 0.00 0.00 0.00 59 1016.6
20260507121524 60 5 0.0 0.0 0.00 0.00 0.00 58 1016.6
20260507120033 60 5 0.0 0.0 0.00 0.00 0.00 60 1016.6
20260507114522 59 5 0.0 0.0 0.00 0.00 0.00 58 1016.6
20260507113019 59 5 0.0 0.0 0.00 0.00 0.00 60 1016.5
20260507111518 58 5 0.0 0.0 0.00 0.00 0.00 62 1016.6
20260507110016 57 5 0.0 0.0 0.00 0.00 0.00 64 1016.7
20260507104516 57 5 0.0 0.0 0.00 0.00 0.00 64 1016.7
20260507103014 57 5 0.0 0.0 0.00 0.00 0.00 66 1016.8
20260507101514 56 5 0.0 0.0 0.00 0.00 0.00 68 1016.8
20260507100012 57 5 0.0 0.0 0.00 0.00 0.00 67 1016.7
20260507094511 57 5 0.0 0.0 0.00 0.00 0.00 66 1016.6
20260507093010 57 5 0.0 0.0 0.00 0.00 0.00 66 1016.5
20260507091508 57 5 0.0 0.0 0.00 0.00 0.00 66 1016.4
20260507090007 58 5 0.0 0.0 0.00 0.00 0.00 70 1016.2
20260507084503 57 5 0.0 0.0 0.00 0.00 0.00 76 1016.2
20260507083120 56 5 0.0 0.0 0.00 0.00 0.00 78 1016.2
20260507081601 55 5 0.0 0.0 0.00 0.00 0.00 81 1016.2
20260507080053 54 5 0.0 0.0 0.00 0.00 0.00 83 1016.1
20260507074549 53 5 0.0 0.0 0.00 0.00 0.00 85 1016.1
20260507073053 53 5 0.0 0.0 0.00 0.00 0.00 87 1016.0
20260507071541 52 5 0.0 0.0 0.00 0.00 0.00 89 1015.8
20260507070041 51 5 0.0 0.0 0.00 0.00 0.00 89 1015.7
20260507064538 51 5 0.0 0.0 0.00 0.00 0.00 89 1015.7
20260507063033 51 5 0.0 0.0 0.00 0.00 0.00 89 1015.6
20260507061527 51 5 0.0 0.0 0.00 0.00 0.00 89 1015.5
20260507060029 51 5 0.0 0.0 0.00 0.00 0.00 88 1015.4
20260507054525 50 5 0.0 0.0 0.00 0.00 0.00 88 1015.3
20260507053018 50 5 0.0 0.0 0.00 0.00 0.00 88 1015.2
20260507051516 50 5 0.0 0.0 0.00 0.00 0.00 88 1015.0
20260507050017 50 5 0.0 0.0 0.00 0.00 0.00 88 1014.9
20260507044511 50 5 0.0 0.0 0.00 0.00 0.00 88 1014.8
20260507043010 50 5 0.0 0.0 0.00 0.00 0.00 88 1014.8
20260507041522 50 5 0.0 0.0 0.00 0.00 0.00 88 1014.7
20260507040007 50 5 0.0 0.0 0.00 0.00 0.00 88 1014.6
20260507034506 50 5 0.0 0.0 0.00 0.00 0.00 88 1014.5
20260507033006 50 5 0.0 0.0 0.00 0.00 0.00 88 1014.4
20260507031505 50 5 0.0 0.0 0.00 0.00 0.00 88 1014.4
20260507030004 50 5 0.0 0.0 0.00 0.00 0.00 88 1014.3
20260507024503 50 5 0.0 0.0 0.00 0.00 0.00 87 1014.3
20260507023002 50 5 0.0 0.0 0.00 0.00 0.00 87 1014.3
20260507021502 50 5 0.0 0.0 0.00 0.00 0.00 87 1014.3
20260507020001 50 5 0.0 0.0 0.00 0.00 0.00 87 1014.2
20260507014608 50 5 0.0 0.0 0.00 0.00 0.00 87 1014.1
20260507013059 50 5 0.0 0.0 0.00 0.00 0.00 87 1014.1
20260507011602 50 5 0.0 0.0 0.00 0.00 0.00 88 1014.0
20260507010057 50 5 0.0 0.0 0.00 0.00 0.00 88 1014.0
20260507004556 50 5 0.0 0.0 0.00 0.00 0.00 87 1014.0
20260507003055 49 5 0.0 0.0 0.00 0.00 0.00 87 1014.0
20260507001557 49 5 0.0 0.0 0.00 0.00 0.00 87 1014.1
20260507000055 49 5 0.0 0.0 0.00 0.00 0.00 87 1014.0
20260506234600 49 5 0.0 0.0 0.00 0.00 0.00 88 1014.0
20260506233052 49 5 0.0 0.0 0.00 0.00 0.00 87 1014.0
20260506231556 48 5 0.0 0.0 0.00 0.00 0.00 87 1013.8
20260506230055 48 5 0.0 0.0 0.00 0.00 0.00 87 1013.8
20260506224546 48 5 0.0 0.0 0.00 0.00 0.00 86 1013.7
20260506223052 48 5 0.0 0.0 0.00 0.00 0.00 86 1013.6
20260506221543 48 5 0.0 0.0 0.00 0.00 0.00 85 1013.6
20260506220042 48 5 0.0 0.0 0.00 0.00 0.00 85 1013.5
20260506214541 48 5 0.0 0.0 0.00 0.00 0.00 85 1013.5
20260506213100 48 5 0.0 0.0 0.00 0.00 0.00 85 1013.5
20260506211549 48 5 0.0 0.0 0.00 0.00 0.00 84 1013.4
20260506210038 48 5 0.0 0.0 0.00 0.00 0.00 84 1013.3
20260506204545 49 5 0.0 0.0 0.00 0.00 0.00 83 1013.3
20260506203038 49 5 0.0 0.0 0.00 0.00 0.00 82 1013.3
20260506201550 49 5 0.0 0.0 0.00 0.00 0.00 81 1013.2
20260506200034 50 5 0.0 0.0 0.00 0.00 0.00 80 1013.0
20260506194532 51 5 0.0 0.0 0.00 0.00 0.00 79 1012.9
20260506193031 51 5 0.0 0.0 0.00 0.00 0.00 77 1012.8
20260506191533 52 5 0.0 0.0 0.00 0.00 0.00 76 1012.6
20260506190028 53 5 0.0 0.0 0.00 0.00 0.00 73 1012.4
20260506184527 54 5 0.0 0.0 0.00 0.00 0.00 71 1012.3
20260506183032 55 5 0.0 0.0 0.00 0.00 0.00 70 1012.4
20260506181524 56 5 0.0 0.0 0.00 0.00 0.00 68 1012.1
20260506180022 57 5 0.0 0.0 0.00 0.00 0.00 68 1012.0
20260506174520 57 5 0.0 0.0 0.00 0.00 0.00 69 1011.7
20260506173019 56 5 0.0 0.0 0.00 0.00 0.00 70 1011.5
20260506171525 55 9 0.0 0.0 0.00 0.00 0.00 71 1011.4
20260506170018 56 5 0.0 0.0 0.00 0.00 0.00 69 1011.4
20260506164515 56 5 0.0 0.0 0.00 0.00 0.00 70 1011.2
20260506163015 56 5 0.0 0.0 0.00 0.00 0.00 70 1011.3
20260506161514 56 5 0.0 0.0 0.00 0.00 0.00 70 1011.2
20260506160016 56 5 0.0 0.0 0.00 0.00 0.00 71 1011.3
20260506154512 56 5 0.0 0.0 0.00 0.00 0.00 71 1011.2
20260506153012 56 5 0.0 0.0 0.00 0.00 0.00 71 1011.3
20260506151511 56 5 0.0 0.0 0.00 0.00 0.00 72 1011.1
20260506150010 56 5 0.0 0.0 0.00 0.00 0.00 71 1011.2
20260506144508 56 5 0.0 0.0 0.00 0.00 0.00 70 1011.2
20260506143019 56 5 0.0 0.0 0.00 0.00 0.00 69 1011.1
20260506141510 56 5 0.0 0.0 0.00 0.00 0.00 70 1011.1
20260506140007 56 5 0.0 0.0 0.00 0.00 0.00 69 1011.1
20260506134506 56 5 0.0 0.0 0.00 0.00 0.00 69 1011.1
20260506133006 56 5 0.0 0.0 0.00 0.00 0.00 68 1011.1
20260506131505 56 5 0.0 0.0 0.00 0.00 0.00 68 1011.1
20260506130009 56 5 0.0 0.0 0.00 0.00 0.00 69 1011.0
20260506124503 56 5 0.0 0.0 0.00 0.00 0.00 69 1010.9